Regional Weather Roundup
Issued by NWS

Home | Current Version | Previous Version | Text Only | Print | Product List | Glossary Off
Versions: 1 2 3 4 5 6 7 8 9 10 11 12 13 14 15 16 17 18 19 20 21 22 23 24 25 26 27 28 29 30 31 32 33 34 35 36 37 38 39 40 41 42 43 44 45 46 47 48 49 50

889
ASUS45 KCYS 260210
RWRWY

WYOMING REGIONAL WEATHER ROUNDUP
NATIONAL WEATHER SERVICE CHEYENNE WY
800 PM MDT WED MAY 25 2016

NOTE:  "FAIR" INDICATES FEW OR NO CLOUDS BELOW 12,000 FEET
WITH NO SIGNIFICANT WEATHER AND/OR OBSTRUCTIONS TO VISIBILITY.

WYZ001-260300-
YELLOWSTONE NATIONAL PARK

CITY           SKY/WX    TMP DP  RH WIND       PRES   REMARKS
LK YELLOWSTONE   N/A     38  34  85 CALM      30.10R
W YELLOWSTONE  NOT AVBL

$$
WYZ002>013-054>058-071-098>099-260300-
NORTHERN WYOMING

CITY           SKY/WX    TMP DP  RH WIND       PRES   REMARKS
JACKSON        NOT AVBL
CODY           CLOUDY    57  37  47 N9        29.94S
GREYBULL       FAIR      54  47  77 S3        29.92S
WORLAND        MOCLDY    54  46  74 VRB3      29.94R
SHERIDAN       FAIR      52  46  80 S7        29.90F
BUFFALO          N/A     50  42  74 MISG      29.97R
GILLETTE       FAIR      54  44  69 CALM      29.94R
HULETT         MOCLDY    52  46  82 S5        29.94R
NEWCASTLE      FAIR      59  37  44 NW5       29.92R

$$
WYZ014>020-022>026-101>103-260300-
CENTRAL WYOMING

CITY           SKY/WX    TMP DP  RH WIND       PRES   REMARKS
BIG PINEY      CLOUDY    50  34  54 NW8       30.08S
PINEDALE       LGT RAIN  45  36  70 W3G22     30.10R
DUBOIS         FAIR      43  30  61 W17       30.04S
LANDER         FAIR      56  32  40 SW22G29   29.94R
RIVERTON       FAIR      58  34  40 NW15      29.96R
CASPER         FAIR      50  43  77 E5        29.97R
DOUGLAS          N/A    N/A N/A N/A MISG      29.97F

$$
WYZ021-027>030-104>119-260300-
SOUTHERN WYOMING

CITY           SKY/WX    TMP DP  RH WIND       PRES   REMARKS
EVANSTON       MOCLDY    49  37  63 N15       30.08S
KEMMERER         N/A     45  32  61 NW9       30.10S
FORT BRIDGER   CLOUDY    45  45 100 E6        30.14R
ROCK SPRINGS   LGT RAIN  44  36  73 SW17      30.10R
DIXON          FAIR      57  31  37 NW12      30.07R
RAWLINS        FAIR      54  30  40 W15G22    30.06R
SARATOGA       FAIR      50  30  46 SW6       30.07R
LARAMIE        FAIR      50  34  54 N9        30.05R
CHEYENNE       MOCLDY    59  40  49 E12       30.00R
TORRINGTON     FAIR      62  38  40 E10       29.92R
PINE BLUFFS    LGT RAIN  54  39  58 NE3       29.98R

$$




USA.gov is the U.S. government's official web portal to all federal, state and local government web resources and services.